Date String (YYYY-MM-DD hh:mm:ss) UTC,Instrument flags,absolute air pressure of the measurement (hPa),sample flow rate (lpm),inlet stack bypass flow (lpm),air temperature of the measurement (°C),ambient temperature measured by the external sensor (°C),aerosol sample conditioner tube jacket temperature (°C),OPC LED temperature (°C),internal box temperature (°C),relative humidity of the measurement (%),span deviation,mass concentration of particles derived from Lorenz-Mie calculation of OPC scattering (μg/m³),mass concentration of particles derived from Lorenz-Mie calculation of OPC scattering (μg/m³),mass concentration of particles derived from Lorenz-Mie calculation of OPC scattering (μg/m³)
DateTimeUTC,F1_M11,P_M11,Q1_M11,Q2_M11,T1_M11,T2_M11,T3_M11,T4_M11,T5_M11,U1_M11,ZSPAN_M11,X0_M11,X2_M11,X1_M11
2023-08-15 03:00:00,SystemResetWarning,0839.5,4.99,000.00,029.2,027.8,000.0,037.6,030.9,20.9,0002.0,0025.60,0006.12,0004.25
2023-08-15 03:01:00,SystemResetWarning,0839.5,5.01,000.00,029.3,028.0,000.0,037.7,031.0,20.8,0002.4,0027.98,0006.12,0004.23
2023-08-15 03:02:00,SystemResetWarning,0839.5,5.01,000.00,029.3,028.1,000.0,037.7,031.1,20.7,0002.5,0029.47,0006.05,0004.20
2023-08-15 03:03:00,SystemResetWarning,0839.5,5.00,000.00,029.3,028.2,000.0,037.7,031.1,20.8,0002.4,0029.44,0006.00,0004.19
2023-08-15 03:04:00,SystemResetWarning,0839.5,4.99,000.00,029.4,028.1,000.0,037.7,031.1,20.7,0001.6,0027.98,0006.03,0004.19
2023-08-15 03:05:00,SystemResetWarning,0839.5,5.00,000.00,029.4,026.4,000.0,037.6,030.7,20.9,0002.0,0028.39,0005.95,0004.18
2023-08-15 03:06:00,SystemResetWarning,0839.5,5.01,000.00,029.3,025.3,000.0,037.5,030.5,20.9,0000.0,0029.97,0005.92,0004.16
2023-08-15 03:07:00,SystemResetWarning,0839.5,5.00,000.00,029.2,025.3,000.0,037.5,030.3,21.0,0000.0,0028.84,0005.85,0004.15
2023-08-15 03:08:00,SystemResetWarning,0839.5,5.00,000.00,029.1,025.6,000.0,037.5,030.3,21.3,0000.0,0026.94,0005.80,0004.15
2023-08-15 03:09:00,SystemResetWarning,0839.5,5.00,000.00,029.0,026.0,000.0,037.5,030.4,21.5,0000.0,0025.81,0005.73,0004.15
2023-08-15 03:10:00,SystemResetWarning,0839.5,5.00,000.00,029.0,026.4,000.0,037.6,030.5,21.6,0001.6,0025.36,0005.65,0004.16
2023-08-15 03:11:00,SystemResetWarning,0839.5,5.00,000.00,029.1,026.8,000.0,037.6,030.6,21.5,0000.0,0024.17,0005.71,0004.17
2023-08-15 03:12:00,SystemResetWarning,0839.6,5.00,000.00,029.1,027.1,000.0,037.6,030.7,21.6,0000.7,0021.92,0005.68,0004.17
2023-08-15 03:13:00,SystemResetWarning,0839.6,5.00,000.00,029.1,027.3,000.0,037.6,030.8,21.7,0001.7,0018.97,0005.63,0004.17
2023-08-15 03:14:00,SystemResetWarning,0839.6,5.00,000.00,029.1,027.6,000.0,037.6,030.8,21.7,0000.0,0017.61,0005.55,0004.17
2023-08-15 03:15:00,SystemResetWarning,0839.6,4.99,000.00,029.2,027.7,000.0,037.6,030.9,21.7,0000.0,0017.06,0005.50,0004.15
2023-08-15 03:16:00,SystemResetWarning,0839.6,5.00,000.00,029.2,027.9,000.0,037.7,030.9,21.3,0000.0,0017.42,0005.52,0004.13
2023-08-15 03:17:00,SystemResetWarning,0839.7,5.00,000.00,029.3,028.0,000.0,037.7,031.0,21.2,0000.0,0016.64,0005.50,0004.11
2023-08-15 03:18:00,SystemResetWarning,0839.7,5.00,000.00,029.3,028.1,000.0,037.7,031.0,21.2,0000.0,0016.95,0005.49,0004.11
2023-08-15 03:19:00,SystemResetWarning,0839.7,5.01,000.00,029.3,028.2,000.0,037.7,031.1,21.0,0000.0,0017.08,0005.55,0004.11
2023-08-15 03:20:00,SystemResetWarning,0839.7,5.01,000.00,029.4,028.3,000.0,037.8,031.1,20.9,0000.0,0016.93,0005.58,0004.12
2023-08-15 03:21:00,SystemResetWarning,0839.7,4.98,000.00,029.4,027.5,000.0,037.7,031.0,21.0,0000.0,0016.40,0005.55,0004.11
2023-08-15 03:22:00,SystemResetWarning,0839.7,5.00,000.00,029.3,025.6,000.0,037.6,030.6,20.9,0000.0,0016.70,0005.49,0004.09
2023-08-15 03:23:00,SystemResetWarning,0839.7,5.01,000.00,029.2,025.2,000.0,037.5,030.4,20.5,0000.0,0017.45,0005.49,0004.10
2023-08-15 03:24:00,SystemResetWarning,0839.7,5.00,000.00,029.1,025.4,000.0,037.5,030.3,20.9,0000.0,0018.14,0005.59,0004.12
2023-08-15 03:25:00,SystemResetWarning,0839.7,5.00,000.00,029.1,025.8,000.0,037.6,030.4,20.8,0000.0,0019.95,0005.70,0004.14
2023-08-15 03:26:00,SystemResetWarning,0839.7,5.01,000.00,029.1,026.2,000.0,037.6,030.5,20.8,0000.0,0021.18,0005.74,0004.16
2023-08-15 03:27:00,SystemResetWarning,0839.7,5.00,000.00,029.1,026.6,000.0,037.6,030.6,20.8,0000.3,0020.84,0005.75,0004.18
2023-08-15 03:28:00,SystemResetWarning,0839.7,4.99,000.00,029.1,026.9,000.0,037.6,030.7,21.0,0000.0,0019.86,0005.76,0004.20
2023-08-15 03:29:00,SystemResetWarning,0839.7,5.00,000.00,029.1,027.2,000.0,037.6,030.8,20.8,0000.0,0019.81,0005.73,0004.22
2023-08-15 03:30:00,SystemResetWarning,0839.7,4.99,000.00,029.1,027.4,000.0,037.6,030.8,20.6,0000.0,0020.38,0005.70,0004.23
2023-08-15 03:31:00,SystemResetWarning,0839.7,4.99,000.00,029.2,027.6,000.0,037.7,030.8,20.8,0000.0,0021.20,0005.75,0004.22
2023-08-15 03:32:00,SystemResetWarning,0839.7,5.00,000.00,029.2,027.8,000.0,037.7,030.9,20.6,0000.3,0022.05,0005.80,0004.22
2023-08-15 03:33:00,SystemResetWarning,0839.7,5.00,000.00,029.2,027.9,000.0,037.7,031.0,20.5,0000.8,0021.70,0005.79,0004.23
2023-08-15 03:34:00,SystemResetWarning,0839.7,5.00,000.00,029.3,028.0,000.0,037.7,031.0,20.5,0000.9,0021.08,0005.81,0004.24
2023-08-15 03:35:00,SystemResetWarning,0839.7,5.01,000.00,029.3,028.1,000.0,037.7,031.0,20.4,0001.1,0020.44,0005.74,0004.22
2023-08-15 03:36:00,SystemResetWarning,0839.7,5.00,000.00,029.4,028.2,000.0,037.8,031.1,20.4,0001.1,0018.87,0005.71,0004.22
2023-08-15 03:37:00,SystemResetWarning,0839.7,5.01,000.00,029.4,028.3,000.0,037.8,031.1,20.4,0000.0,0017.48,0005.64,0004.21
2023-08-15 03:38:00,SystemResetWarning,0839.7,5.00,000.00,029.4,028.3,000.0,037.8,031.1,20.4,0000.0,0016.67,0005.59,0004.21
2023-08-15 03:39:00,SystemResetWarning,0839.7,4.98,000.00,029.5,027.8,000.0,037.8,031.1,20.4,0001.3,0016.29,0005.55,0004.20
2023-08-15 03:40:00,SystemResetWarning,0839.7,5.00,000.00,029.4,025.8,000.0,037.7,030.7,20.5,0001.6,0016.25,0005.53,0004.19
2023-08-15 03:41:00,SystemResetWarning,0839.7,5.00,000.00,029.3,025.2,000.0,037.6,030.5,20.6,0001.4,0016.76,0005.51,0004.18
2023-08-15 03:42:00,SystemResetWarning,0839.7,5.01,000.00,029.2,025.4,000.0,037.6,030.4,20.9,0001.5,0016.66,0005.42,0004.17
2023-08-15 03:43:00,SystemResetWarning,0839.7,5.00,000.00,029.1,025.7,000.0,037.6,030.4,21.0,0001.7,0016.18,0005.37,0004.17
2023-08-15 03:44:00,SystemResetWarning,0839.7,5.00,000.00,029.1,026.2,000.0,037.7,030.5,21.1,0001.9,0015.81,0005.37,0004.16
2023-08-15 03:45:00,SystemResetWarning,0839.7,5.00,000.00,029.1,026.5,000.0,037.7,030.6,21.0,0001.8,0016.07,0005.35,0004.15
2023-08-15 03:46:00,SystemResetWarning,0839.7,5.00,000.00,029.1,026.9,000.0,037.7,030.7,21.0,0001.7,0015.81,0005.37,0004.15
2023-08-15 03:47:00,SystemResetWarning,0839.7,5.00,000.00,029.2,027.2,000.0,037.7,030.8,20.9,0001.5,0015.67,0005.30,0004.14
2023-08-15 03:48:00,SystemResetWarning,0839.7,5.01,000.00,029.2,027.4,000.0,037.7,030.8,20.9,0001.1,0015.62,0005.27,0004.15
2023-08-15 03:49:00,SystemResetWarning,0839.7,5.00,000.00,029.2,027.6,000.0,037.7,030.9,20.9,0000.8,0016.74,0005.34,0004.15
2023-08-15 03:50:00,SystemResetWarning,0839.7,5.00,000.00,029.2,027.7,000.0,037.7,030.9,20.9,0001.0,0017.28,0005.31,0004.17
2023-08-15 03:51:00,SystemResetWarning,0839.7,5.01,000.00,029.3,027.9,000.0,037.7,031.0,20.8,0001.2,0017.67,0005.29,0004.15
2023-08-15 03:52:00,SystemResetWarning,0839.7,5.00,000.00,029.3,028.0,000.0,037.8,031.0,20.7,0000.9,0017.08,0005.30,0004.16
2023-08-15 03:53:00,SystemResetWarning,0839.7,5.00,000.00,029.3,028.1,000.0,037.8,031.0,20.7,0000.0,0016.53,0005.33,0004.18
2023-08-15 03:54:00,SystemResetWarning,0839.7,5.00,000.00,029.4,028.2,000.0,037.8,031.1,20.7,0000.0,0016.23,0005.34,0004.19
2023-08-15 03:55:00,SystemResetWarning,0839.7,5.00,000.00,029.4,028.2,000.0,037.8,031.1,20.6,0000.0,0016.66,0005.31,0004.20
2023-08-15 03:56:00,SystemResetWarning,0839.7,5.00,000.00,029.4,028.3,000.0,037.9,031.1,20.6,0000.0,0017.14,0005.26,0004.20
2023-08-15 03:57:00,SystemResetWarning,0839.7,5.00,000.00,029.5,028.4,000.0,037.9,031.1,20.6,0000.0,0017.26,0005.20,0004.20
2023-08-15 03:58:00,SystemResetWarning,0839.7,4.99,000.00,029.5,028.4,000.0,037.9,031.2,20.5,0000.0,0017.27,0005.25,0004.20
2023-08-15 03:59:00,SystemResetWarning,0839.7,5.00,000.00,029.5,027.3,000.0,037.8,031.0,20.5,0000.0,0017.19,0005.30,0004.22
